Regional Weather Roundup
Issued by NWS

Home | Current Version | Previous Version | Graphics & Text | Print | Product List | Glossary On
Versions: 1 2 3 4 5 6 7 8 9 10 11 12 13 14 15 16 17 18 19 20 21 22 23 24 25 26 27 28 29 30 31 32 33 34 35 36 37 38 39 40 41 42 43 44 45 46 47 48 49 50
524
ASUS43 KLSX 301007
RWRMO

WEATHER SUMMARY FOR MISSOURI
NATIONAL WEATHER SERVICE SPRINGFIELD MO
500 AM CDT SUN APR 30 2017

NOTE: "FAIR" INDICATES FEW OR NO CLOUDS BELOW 12,000 FEET WITH NO
       SIGNIFICANT WEATHER AND/OR OBSTRUCTIONS TO VISIBILITY.
       CURRENT SKY AND/OR WEATHER CONDITIONS ARE NOT AVAILABLE FOR
       CHILLICOTHE AND FARMINGTON.

MOZ001>031-035>038-043-044-053-054-301100-
...NORTHERN AND WESTERN MISSOURI...

CITY           SKY/WX    TMP DP  RH WIND       PRES   REMARKS
KANSAS CTY INT LGT RAIN  42  41  96 NE20G29   29.62F FOG
KANSAS C DTWN  CLOUDY   N/A N/A N/A NE15G21   29.62F HAZE
LEE`S SUMMIT   LGT RAIN  44  44 100 NE16      29.63F FOG
ST JOSEPH      CLOUDY    42  42 100 NE21G26   29.70F
CHILLICOTHE      N/A     44  43  96 N9G20     29.73F
KIRKSVILLE     CLOUDY    44  18  35 N10       29.74R

$$
MOZ066>068-077>081-088>096-101>105-301100-
...SOUTHWEST MISSOURI...

CITY           SKY/WX    TMP DP  RH WIND       PRES   REMARKS
SPRINGFIELD    CLOUDY    64  62  93 E10       29.57F
JOPLIN         LGT RAIN  65  64  97 SE12      29.52F FOG
BRANSON        LGT RAIN  63  63 100 SE13      29.61S

$$
MOZ032>034-039>042-045>050-055>058-069>072-301100-
...CENTRAL MISSOURI...

CITY           SKY/WX    TMP DP  RH WIND       PRES   REMARKS
COLUMBIA       CLOUDY    51  51 100 NE15G28   29.57F FOG
JEFFERSON CITY CLOUDY    54  51  90 SE18G29   29.60F
ROLLA          CLOUDY    61  61 100 SE17G25   29.71F
SEDALIA        CLOUDY    56  56 100 SE17G24   29.62R
WHITEMAN AFB   CLOUDY    55  55 100 CALM      29.63R
OSAGE BEACH    RAIN      61  61 100 E8G21     29.65R

$$
MOZ051-052-059>065-301100-
...EAST CENTRAL MISSOURI...

CITY           SKY/WX    TMP DP  RH WIND       PRES   REMARKS
ST LOUIS INTL  HVY RAIN  51  49  92 NE3       29.81F FOG
SPIRIT OF STL  LGT RAIN  49  49 100 NE9       29.77F
ST CHARLES     HVY RAIN  49  49 100 NE6       29.82S FOG

$$
MOZ072>076-082>087-097>100-106>115-301100-
...SOUTH CENTRAL AND SOUTHEAST MISSOURI...

CITY           SKY/WX    TMP DP  RH WIND       PRES   REMARKS
CAPE GIRARDEAU RAIN      64  62  93 CALM      29.80S
FARMINGTON     TSTM      63  61  94 E7        29.78F
POPLAR BLUFF   RAIN      65  65 100 E3        29.75F FOG

$$



USA.gov is the U.S. government's official web portal to all federal, state and local government web resources and services.